📊 Raw Sensor Data

Showing records 52451 to 52475 of 85,285 total

ID Distance (ft) Battery V Battery A Int Temp (°F) Int Humid (%) Ext Temp (°F) Solar V RSSI SNR Time Stamp
32847 13.5 3.93 56 63 38 58 4.50 -78 7 02/19/2025 05:00 PM
32846 13.5 3.97 69 63 39 58 4.50 -76 7 02/19/2025 04:45 PM
32845 13.5 3.93 0 64 39 58 5.10 -77 5 02/19/2025 04:15 PM
32844 13.5 3.78 0 67 36 58 5.10 -78 6 02/19/2025 03:30 PM
32843 13.5 3.78 0 69 33 60 5.10 -78 8 02/19/2025 03:15 PM
32842 13.4 3.87 24 56 38 55 4.60 -77 5 02/19/2025 02:30 PM
32841 13.4 3.78 0 56 38 55 5.10 -78 7 02/19/2025 02:15 PM
32840 13.5 3.94 0 57 38 56 5.10 -78 6 02/19/2025 02:00 PM
32839 13.4 3.93 52 55 38 55 4.50 -78 7 02/19/2025 01:45 PM
32838 13.4 3.88 32 55 39 55 4.50 -76 5 02/19/2025 01:30 PM
32837 13.4 3.88 33 55 38 55 4.50 -76 5 02/19/2025 01:15 PM
32836 13.4 3.76 0 55 39 55 5.10 -76 6 02/19/2025 12:45 PM
32835 13.4 3.77 0 55 38 55 5.10 -76 6 02/19/2025 12:30 PM
32834 13.4 3.95 58 55 39 54 4.50 -77 5 02/19/2025 12:15 PM
32833 13.4 3.95 59 55 39 55 4.50 -77 6 02/19/2025 12:00 PM
32832 13.5 3.91 41 55 39 55 4.50 -78 5 02/19/2025 11:45 AM
32831 13.5 3.91 54 56 39 55 4.50 -78 4 02/19/2025 11:30 AM
32830 13.5 3.93 79 57 39 56 4.50 -79 8 02/19/2025 11:15 AM
32829 13.4 3.90 52 59 38 58 4.50 -79 8 02/19/2025 11:00 AM
32828 13.5 3.72 0 59 38 57 5.10 -79 8 02/19/2025 10:45 AM
32827 13.5 3.76 0 60 37 58 5.10 -78 8 02/19/2025 10:30 AM
32826 13.5 3.71 0 60 37 59 5.10 -78 7 02/19/2025 10:15 AM
32825 13.6 3.71 0 61 35 59 5.10 -82 7 02/19/2025 10:00 AM
32824 13.6 3.71 0 61 35 60 5.10 -78 7 02/19/2025 09:45 AM
32823 13.5 3.71 0 58 35 60 5.10 -80 7 02/19/2025 09:30 AM